Starlink 30715

operational
NORAD ID: 57941 Int'l Des: 2023-148 Owner: SPXS Country: US Constellation: starlink
LEOCIRCULAR

Starlink 30715について

説明を読み込み中...

リアルタイム位置

3D地球を読み込み中...

次回通過

高度履歴

Altitude vs Time

uPlot chart will show altitude changes over time

軌道要素

1 57941U 23148G 25308.78983075 -.00002604 00000-0 -75907-4 0 9995
2 57941 53.1609 234.1376 0001532 81.7150 278.4024 15.30156512119446
Epoch: Nov 4, 2025 • Age: 10 hours

現在のステータス

高度 478.5 km
速度 7.63 km/s
衛星直下点 41.50°N, 107.24°W
打ち上げ日 Sep 25, 2023
運用期間 2.1 years
タイプ internet

技術仕様

分類 Payload
質量 730.00 kg
乾燥質量 700.00 kg
総質量 730.00 kg
長さ 0.30 m
直径 4.10 m
スパン 29.00 m
形状 Box + pan
製造者 SPXS
バスタイプ Starlink V2M
フェーズステータス In Orbit
所有者/国 SPXS/US

大規模コンステレーション

Loading constellations...